| time (UTC) | temp F | wind direction | speed knots | gust knots | rain 1hr in | rain 24hr in | rain mn in | humidity % | barometer mb |
| 20260831141917 | 44 | 261 | 0.0 | 0.0 | 0.00 | 0.00 | 0.00 | 90 | 1029.4 |
| 20260831141416 | 44 | 261 | 0.0 | 0.0 | 0.00 | 0.00 | 0.00 | 91 | 1029.4 |
| 20260831141139 | 44 | 261 | 0.0 | 0.0 | 0.00 | 0.00 | 0.00 | 91 | 1029.3 |
| 20260831140415 | 44 | 261 | 0.0 | 0.0 | 0.00 | 0.00 | 0.00 | 91 | 1029.3 |
| 20260831135915 | 43 | 276 | 0.0 | 0.0 | 0.00 | 0.00 | 0.00 | 91 | 1029.3 |
| 20260831135635 | 43 | 276 | 0.0 | 0.0 | 0.00 | 0.00 | 0.00 | 91 | 1029.3 |
| 20260831134915 | 43 | 234 | 0.0 | 0.0 | 0.00 | 0.00 | 0.00 | 91 | 1029.2 |
| 20260831134416 | 43 | 233 | 0.0 | 0.0 | 0.00 | 0.00 | 0.00 | 91 | 1029.2 |
| 20260831133915 | 43 | 234 | 0.0 | 0.0 | 0.00 | 0.00 | 0.00 | 91 | 1029.1 |
| 20260831133417 | 43 | 234 | 0.0 | 0.0 | 0.00 | 0.00 | 0.00 | 90 | 1028.9 |
| 20260831132914 | 43 | 234 | 0.0 | 0.0 | 0.00 | 0.00 | 0.00 | 90 | 1028.9 |
| 20260831132416 | 43 | 234 | 0.0 | 0.0 | 0.00 | 0.00 | 0.00 | 90 | 1028.9 |
| 20260831131914 | 43 | 234 | 0.0 | 0.0 | 0.00 | 0.00 | 0.00 | 89 | 1028.9 |
| 20260831131653 | 43 | 233 | 0.0 | 0.0 | 0.00 | 0.00 | 0.00 | 88 | 1028.8 |
| 20260831131136 | 44 | 234 | 0.0 | 0.0 | 0.00 | 0.00 | 0.00 | 88 | 1028.9 |
| 20260831130414 | 44 | 233 | 0.0 | 0.0 | 0.00 | 0.00 | 0.00 | 89 | 1028.9 |
| 20260831125914 | 44 | 234 | 0.0 | 0.0 | 0.00 | 0.00 | 0.00 | 89 | 1028.9 |
| 20260831125415 | 44 | 217 | 0.0 | 0.0 | 0.00 | 0.00 | 0.00 | 88 | 1028.9 |
| 20260831125406 | 44 | 217 | 0.0 | 0.0 | 0.00 | 0.00 | 0.00 | 87 | 1028.9 |
| 20260831124413 | 44 | 217 | 0.0 | 0.0 | 0.00 | 0.00 | 0.00 | 88 | 1028.8 |
| 20260831123915 | 44 | 217 | 0.0 | 0.0 | 0.00 | 0.00 | 0.00 | 89 | 1028.8 |
| 20260831123413 | 44 | 217 | 0.0 | 0.0 | 0.00 | 0.00 | 0.00 | 89 | 1028.8 |
| 20260831122913 | 44 | 224 | 0.0 | 0.0 | 0.00 | 0.00 | 0.00 | 88 | 1028.7 |
| 20260831122644 | 44 | 224 | 0.0 | 0.0 | 0.00 | 0.00 | 0.00 | 87 | 1028.8 |
| 20260831121913 | 45 | 224 | 0.0 | 0.0 | 0.00 | 0.00 | 0.00 | 87 | 1028.8 |
| 20260831121630 | 45 | 224 | 0.0 | 0.0 | 0.00 | 0.00 | 0.00 | 87 | 1028.8 |
| 20260831120913 | 45 | 224 | 0.0 | 0.0 | 0.00 | 0.00 | 0.00 | 86 | 1028.8 |
| 20260831120414 | 45 | 224 | 0.0 | 0.0 | 0.00 | 0.00 | 0.00 | 86 | 1028.8 |
| 20260831120132 | 45 | 224 | 0.0 | 0.0 | 0.00 | 0.00 | 0.00 | 86 | 1028.8 |
| 20260831115415 | 45 | 224 | 0.0 | 0.0 | 0.00 | 0.00 | 0.00 | 86 | 1028.8 |
| 20260831114913 | 46 | 224 | 0.0 | 0.0 | 0.00 | 0.00 | 0.00 | 86 | 1028.7 |
| 20260831114413 | 46 | 224 | 0.0 | 0.0 | 0.00 | 0.00 | 0.00 | 85 | 1028.8 |
| 20260831113912 | 46 | 224 | 0.0 | 0.0 | 0.00 | 0.00 | 0.00 | 85 | 1028.8 |
| 20260831113412 | 46 | 224 | 0.0 | 0.0 | 0.00 | 0.00 | 0.00 | 84 | 1028.7 |
| 20260831112913 | 46 | 224 | 0.0 | 0.0 | 0.00 | 0.00 | 0.00 | 84 | 1028.9 |
| 20260831112412 | 47 | 224 | 0.0 | 0.0 | 0.00 | 0.00 | 0.00 | 82 | 1028.9 |
| 20260831112402 | 47 | 224 | 0.0 | 0.0 | 0.00 | 0.00 | 0.00 | 81 | 1029.1 |
| 20260831111413 | 48 | 224 | 0.0 | 0.0 | 0.00 | 0.00 | 0.00 | 82 | 1029.1 |
| 20260831110913 | 47 | 224 | 0.0 | 0.0 | 0.00 | 0.00 | 0.00 | 82 | 1028.9 |
| 20260831110633 | 47 | 227 | 0.0 | 0.0 | 0.00 | 0.00 | 0.00 | 82 | 1029.1 |
| 20260831105911 | 47 | 216 | 0.0 | 0.0 | 0.00 | 0.00 | 0.00 | 81 | 1029.1 |
| 20260831105412 | 47 | 209 | 0.0 | 0.0 | 0.00 | 0.00 | 0.00 | 81 | 1029.1 |
| 20260831104912 | 48 | 209 | 0.0 | 0.0 | 0.00 | 0.00 | 0.00 | 81 | 1029.1 |
| 20260831104635 | 48 | 209 | 0.0 | 0.0 | 0.00 | 0.00 | 0.00 | 81 | 1028.9 |
| 20260831103911 | 48 | 209 | 0.0 | 0.0 | 0.00 | 0.00 | 0.00 | 81 | 1028.9 |
| 20260831103412 | 48 | 209 | 0.0 | 0.0 | 0.00 | 0.00 | 0.00 | 81 | 1028.9 |
| 20260831102910 | 48 | 209 | 0.0 | 0.0 | 0.00 | 0.00 | 0.00 | 81 | 1028.9 |
| 20260831102412 | 48 | 209 | 0.0 | 0.0 | 0.00 | 0.00 | 0.00 | 81 | 1028.8 |
| 20260831101910 | 48 | 209 | 0.0 | 0.0 | 0.00 | 0.00 | 0.00 | 80 | 1028.7 |
| 20260831101410 | 49 | 209 | 0.0 | 0.0 | 0.00 | 0.00 | 0.00 | 79 | 1028.7 |
| 20260831100910 | 49 | 209 | 0.0 | 0.0 | 0.00 | 0.00 | 0.00 | 78 | 1028.8 |
| 20260831100411 | 49 | 209 | 0.0 | 0.0 | 0.00 | 0.00 | 0.00 | 78 | 1028.6 |
| 20260831095911 | 49 | 209 | 0.0 | 0.0 | 0.00 | 0.00 | 0.00 | 79 | 1028.7 |
| 20260831095410 | 49 | 207 | 0.0 | 0.0 | 0.00 | 0.00 | 0.00 | 79 | 1028.7 |
| 20260831094911 | 49 | 207 | 0.0 | 0.0 | 0.00 | 0.00 | 0.00 | 78 | 1028.7 |
| 20260831094635 | 49 | 207 | 0.0 | 0.0 | 0.00 | 0.00 | 0.00 | 78 | 1028.8 |
| 20260831093910 | 50 | 207 | 0.0 | 0.0 | 0.00 | 0.00 | 0.00 | 78 | 1028.7 |
| 20260831093409 | 50 | 209 | 0.0 | 0.0 | 0.00 | 0.00 | 0.00 | 77 | 1028.7 |
| 20260831093139 | 50 | 206 | 0.0 | 0.0 | 0.00 | 0.00 | 0.00 | 76 | 1028.7 |
| 20260831092410 | 50 | 219 | 0.0 | 0.0 | 0.00 | 0.00 | 0.00 | 76 | 1028.8 |
| 20260831091909 | 51 | 199 | 0.0 | 0.0 | 0.00 | 0.00 | 0.00 | 75 | 1028.7 |
| 20260831091410 | 51 | 199 | 0.0 | 0.0 | 0.00 | 0.00 | 0.00 | 74 | 1028.8 |
| 20260831090908 | 51 | 207 | 0.0 | 0.0 | 0.00 | 0.00 | 0.00 | 74 | 1028.7 |
| 20260831090410 | 51 | 234 | 0.0 | 0.0 | 0.00 | 0.00 | 0.00 | 74 | 1028.7 |
| 20260831085909 | 51 | 199 | 0.0 | 0.0 | 0.00 | 0.00 | 0.00 | 74 | 1028.8 |
| 20260831085410 | 51 | 195 | 0.0 | 0.0 | 0.00 | 0.00 | 0.00 | 73 | 1028.7 |
| 20260831085129 | 52 | 206 | 0.0 | 0.0 | 0.00 | 0.00 | 0.00 | 73 | 1028.7 |
| 20260831084408 | 52 | 216 | 0.0 | 0.0 | 0.00 | 0.00 | 0.00 | 72 | 1028.7 |
| 20260831083909 | 52 | 202 | 0.0 | 0.0 | 0.00 | 0.00 | 0.00 | 72 | 1028.7 |
| 20260831083408 | 52 | 190 | 0.0 | 0.9 | 0.00 | 0.00 | 0.00 | 72 | 1028.7 |
| 20260831083127 | 52 | 230 | 0.0 | 1.7 | 0.00 | 0.00 | 0.00 | 72 | 1028.8 |
| 20260831082407 | 52 | 200 | 0.9 | 1.7 | 0.00 | 0.00 | 0.00 | 72 | 1028.8 |
| 20260831081906 | 53 | 176 | 0.0 | 0.0 | 0.00 | 0.00 | 0.00 | 71 | 1028.8 |
| 20260831081258 | 53 | 169 | 0.0 | 0.9 | 0.00 | 0.00 | 0.00 | 71 | 1028.7 |
| 20260831080757 | 53 | 199 | 0.0 | 1.7 | 0.00 | 0.00 | 0.00 | 71 | 1028.7 |
| 20260831080258 | 53 | 188 | 0.0 | 1.7 | 0.00 | 0.00 | 0.00 | 71 | 1028.7 |
| 20260831080243 | 53 | 175 | 0.0 | 0.0 | 0.00 | 0.00 | 0.00 | 70 | 1028.7 |
| 20260831075258 | 53 | 216 | 0.0 | 0.0 | 0.00 | 0.00 | 0.00 | 70 | 1028.7 |
| 20260831075016 | 55 | 131 | 0.0 | 0.0 | 0.00 | 0.00 | 0.00 | 66 | 1028.6 |
| 20260831074902 | 54 | 134 | 0.0 | 0.0 | 0.00 | 0.00 | 0.00 | 68 | 1028.7 |
| 20260831074016 | 56 | 152 | 0.0 | 1.7 | 0.00 | 0.00 | 0.00 | 66 | 1028.7 |
| 20260831073256 | 56 | 240 | 0.0 | 3.5 | 0.00 | 0.00 | 0.00 | 65 | 1028.7 |
| 20260831072757 | 56 | 244 | 0.0 | 3.5 | 0.00 | 0.00 | 0.00 | 66 | 1028.7 |
| 20260831072514 | 55 | 223 | 0.0 | 0.0 | 0.00 | 0.00 | 0.00 | 67 | 1028.6 |
| 20260831071753 | 55 | 203 | 0.0 | 0.0 | 0.00 | 0.00 | 0.00 | 67 | 1028.5 |
| 20260831071258 | 55 | 158 | 0.0 | 0.0 | 0.00 | 0.00 | 0.00 | 66 | 1028.5 |
| 20260831070758 | 56 | 138 | 0.0 | 0.0 | 0.00 | 0.00 | 0.00 | 65 | 1028.5 |
| 20260831070258 | 56 | 216 | 0.0 | 0.0 | 0.00 | 0.00 | 0.00 | 64 | 1028.5 |
| 20260831065756 | 58 | 164 | 0.0 | 0.0 | 0.00 | 0.00 | 0.00 | 62 | 1028.5 |
| 20260831065256 | 58 | 65 | 0.0 | 0.0 | 0.00 | 0.00 | 0.00 | 61 | 1028.7 |
| 20260831064801 | 58 | 65 | 0.0 | 0.0 | 0.00 | 0.00 | 0.00 | 60 | 1028.6 |
| 20260831064256 | 59 | 65 | 0.0 | 0.9 | 0.00 | 0.00 | 0.00 | 59 | 1028.6 |
| 20260831063756 | 60 | 25 | 0.0 | 1.7 | 0.00 | 0.00 | 0.00 | 58 | 1028.6 |
| 20260831063255 | 60 | 293 | 0.0 | 5.2 | 0.00 | 0.00 | 0.00 | 57 | 1028.5 |
| 20260831062757 | 61 | 288 | 0.9 | 5.2 | 0.00 | 0.00 | 0.00 | 56 | 1028.6 |
| 20260831062255 | 61 | 298 | 0.9 | 4.3 | 0.00 | 0.00 | 0.00 | 56 | 1028.5 |
| 20260831062019 | 61 | 272 | 0.9 | 4.3 | 0.00 | 0.00 | 0.00 | 56 | 1028.4 |
| 20260831061255 | 61 | 250 | 1.7 | 4.3 | 0.00 | 0.00 | 0.00 | 56 | 1028.5 |
| 20260831060754 | 61 | 278 | 1.7 | 4.3 | 0.00 | 0.00 | 0.00 | 56 | 1028.6 |
| 20260831060255 | 61 | 257 | 0.9 | 6.1 | 0.00 | 0.00 | 0.00 | 56 | 1028.6 |
| 20260831055754 | 61 | 289 | 1.7 | 6.1 | 0.00 | 0.00 | 0.00 | 56 | 1028.5 |
| 20260831055253 | 61 | 275 | 0.9 | 4.3 | 0.00 | 0.00 | 0.00 | 56 | 1028.5 |
| 20260831054751 | 61 | 238 | 0.0 | 4.3 | 0.00 | 0.00 | 0.00 | 56 | 1028.5 |
| 20260831054256 | 61 | 286 | 0.0 | 4.3 | 0.00 | 0.00 | 0.00 | 56 | 1028.5 |
| 20260831053755 | 61 | 336 | 0.0 | 4.3 | 0.00 | 0.00 | 0.00 | 55 | 1028.6 |
| 20260831053255 | 61 | 293 | 0.0 | 2.6 | 0.00 | 0.00 | 0.00 | 55 | 1028.5 |
| 20260831052755 | 62 | 290 | 0.0 | 3.5 | 0.00 | 0.00 | 0.00 | 55 | 1028.5 |
| 20260831052253 | 62 | 250 | 0.9 | 3.5 | 0.00 | 0.00 | 0.00 | 55 | 1028.5 |
| 20260831051754 | 62 | 243 | 0.0 | 2.6 | 0.00 | 0.00 | 0.00 | 55 | 1028.5 |
| 20260831051253 | 62 | 293 | 0.0 | 1.7 | 0.00 | 0.00 | 0.00 | 55 | 1028.5 |
| 20260831050756 | 62 | 300 | 0.0 | 6.1 | 0.00 | 0.00 | 0.00 | 54 | 1028.5 |
| 20260831050255 | 62 | 306 | 0.9 | 6.1 | 0.00 | 0.00 | 0.00 | 54 | 1028.5 |
| 20260831045755 | 62 | 272 | 0.0 | 7.8 | 0.00 | 0.00 | 0.00 | 54 | 1028.4 |
| 20260831045254 | 62 | 258 | 0.0 | 7.8 | 0.00 | 0.00 | 0.00 | 54 | 1028.3 |
| 20260831044753 | 63 | 293 | 0.9 | 4.3 | 0.00 | 0.00 | 0.00 | 53 | 1028.4 |
| 20260831044253 | 63 | 309 | 0.9 | 4.3 | 0.00 | 0.00 | 0.00 | 53 | 1028.3 |
| 20260831043753 | 63 | 254 | 1.7 | 3.5 | 0.00 | 0.00 | 0.00 | 53 | 1028.3 |
| 20260831043516 | 63 | 296 | 1.7 | 4.3 | 0.00 | 0.00 | 0.00 | 53 | 1028.4 |
| 20260831042753 | 63 | 261 | 0.9 | 4.3 | 0.00 | 0.00 | 0.00 | 53 | 1028.4 |
| 20260831042250 | 63 | 292 | 0.0 | 2.6 | 0.00 | 0.00 | 0.00 | 54 | 1028.4 |
| 20260831042018 | 63 | 295 | 0.9 | 2.6 | 0.00 | 0.00 | 0.00 | 54 | 1028.3 |
| 20260831041927 | 63 | 306 | 0.9 | 2.6 | 0.00 | 0.00 | 0.00 | 54 | 1028.3 |
| 20260831041726 | 63 | 307 | 0.0 | 2.6 | 0.00 | 0.00 | 0.00 | 53 | 1028.3 |
| 20260831040252 | 63 | 244 | 0.0 | 1.7 | 0.00 | 0.00 | 0.00 | 53 | 1028.3 |
| 20260831035752 | 63 | 316 | 0.0 | 1.7 | 0.00 | 0.00 | 0.00 | 53 | 1028.2 |
| 20260831035511 | 63 | 289 | 0.9 | 3.5 | 0.00 | 0.00 | 0.00 | 53 | 1028.2 |
| 20260831035003 | 63 | 306 | 1.7 | 3.5 | 0.00 | 0.00 | 0.00 | 52 | 1028.1 |
| 20260831034842 | 63 | 309 | 0.9 | 3.5 | 0.00 | 0.00 | 0.00 | 53 | 1028.2 |
| 20260831033750 | 64 | 333 | 0.9 | 4.3 | 0.00 | 0.00 | 0.00 | 52 | 1027.9 |
| 20260831033252 | 64 | 306 | 1.7 | 4.3 | 0.00 | 0.00 | 0.00 | 52 | 1028.0 |
| 20260831032752 | 64 | 338 | 0.9 | 4.3 | 0.00 | 0.00 | 0.00 | 51 | 1027.8 |
| 20260831032252 | 64 | 296 | 0.9 | 4.3 | 0.00 | 0.00 | 0.00 | 51 | 1027.8 |
| 20260831031751 | 65 | 286 | 0.9 | 3.5 | 0.00 | 0.00 | 0.00 | 50 | 1027.9 |
| 20260831031251 | 65 | 296 | 0.9 | 6.1 | 0.00 | 0.00 | 0.00 | 50 | 1027.8 |
| 20260831030750 | 65 | 302 | 1.7 | 6.1 | 0.00 | 0.00 | 0.00 | 50 | 1027.7 |
| 20260831030251 | 65 | 299 | 0.9 | 3.5 | 0.00 | 0.00 | 0.00 | 50 | 1027.8 |
| 20260831025751 | 65 | 289 | 0.9 | 3.5 | 0.00 | 0.00 | 0.00 | 50 | 1027.7 |
| 20260831025249 | 65 | 331 | 0.9 | 8.7 | 0.00 | 0.00 | 0.00 | 50 | 1027.6 |
| 20260831024751 | 65 | 302 | 1.7 | 8.7 | 0.00 | 0.00 | 0.00 | 50 | 1027.6 |
| 20260831024729 | 65 | 282 | 1.7 | 6.1 | 0.00 | 0.00 | 0.00 | 50 | 1027.5 |
| 20260831024013 | 65 | 296 | 0.9 | 6.1 | 0.00 | 0.00 | 0.00 | 49 | 1027.5 |
| 20260831023250 | 66 | 275 | 1.7 | 6.1 | 0.00 | 0.00 | 0.00 | 49 | 1027.3 |
| 20260831022750 | 66 | 269 | 1.7 | 5.2 | 0.00 | 0.00 | 0.00 | 49 | 1027.3 |
| 20260831022249 | 66 | 309 | 2.6 | 4.3 | 0.00 | 0.00 | 0.00 | 48 | 1027.3 |
| 20260831021747 | 66 | 283 | 1.7 | 4.3 | 0.00 | 0.00 | 0.00 | 48 | 1027.3 |
| 20260831021246 | 67 | 305 | 1.7 | 6.1 | 0.00 | 0.00 | 0.00 | 48 | 1027.3 |
| 20260831020748 | 67 | 306 | 2.6 | 8.7 | 0.00 | 0.00 | 0.00 | 48 | 1027.2 |
| 20260831020512 | 67 | 310 | 2.6 | 8.7 | 0.00 | 0.00 | 0.00 | 48 | 1027.2 |
| 20260831015749 | 67 | 317 | 3.5 | 8.7 | 0.00 | 0.00 | 0.00 | 47 | 1027.3 |
| 20260831015249 | 67 | 312 | 2.6 | 8.7 | 0.00 | 0.00 | 0.00 | 47 | 1027.2 |
| 20260831014749 | 67 | 192 | 2.6 | 7.8 | 0.00 | 0.00 | 0.00 | 48 | 1027.3 |
| 20260831014246 | 68 | 300 | 1.7 | 5.2 | 0.00 | 0.00 | 0.00 | 47 | 1027.2 |
| 20260831014231 | 68 | 313 | 1.7 | 9.6 | 0.00 | 0.00 | 0.00 | 47 | 1027.1 |
| 20260831013506 | 68 | 262 | 2.6 | 10.4 | 0.00 | 0.00 | 0.00 | 46 | 1027.2 |
| 20260831012745 | 68 | 220 | 2.6 | 10.4 | 0.00 | 0.00 | 0.00 | 46 | 1027.1 |
| 20260831012247 | 68 | 257 | 3.5 | 13.0 | 0.00 | 0.00 | 0.00 | 46 | 1027.1 |
| 20260831011750 | 69 | 313 | 3.5 | 13.0 | 0.00 | 0.00 | 0.00 | 46 | 1027.2 |
| 20260831011248 | 69 | 299 | 3.5 | 8.7 | 0.00 | 0.00 | 0.00 | 45 | 1027.2 |
| 20260831010748 | 70 | 293 | 2.6 | 4.3 | 0.00 | 0.00 | 0.00 | 44 | 1027.1 |
| 20260831010248 | 70 | 330 | 1.7 | 9.6 | 0.00 | 0.00 | 0.00 | 43 | 1027.1 |
| 20260831005758 | 70 | 290 | 3.5 | 9.6 | 0.00 | 0.00 | 0.00 | 43 | 1027.0 |
| 20260831005507 | 70 | 283 | 3.5 | 10.4 | 0.00 | 0.00 | 0.00 | 43 | 1027.0 |
| 20260831004749 | 70 | 313 | 3.5 | 12.2 | 0.00 | 0.00 | 0.00 | 43 | 1026.9 |
| 20260831004253 | 70 | 237 | 3.5 | 12.2 | 0.00 | 0.00 | 0.00 | 43 | 1026.8 |
| 20260831003751 | 71 | 244 | 3.5 | 8.7 | 0.00 | 0.00 | 0.00 | 43 | 1026.7 |
| 20260831003248 | 71 | 279 | 2.6 | 6.1 | 0.00 | 0.00 | 0.00 | 43 | 1026.9 |
| 20260831002749 | 71 | 305 | 2.6 | 8.7 | 0.00 | 0.00 | 0.00 | 43 | 1027.0 |
| 20260831002247 | 71 | 285 | 3.5 | 8.7 | 0.00 | 0.00 | 0.00 | 42 | 1027.0 |
| 20260831001747 | 71 | 330 | 3.5 | 13.9 | 0.00 | 0.00 | 0.00 | 42 | 1026.9 |
| 20260831001247 | 72 | 274 | 4.3 | 13.9 | 0.00 | 0.00 | 0.00 | 41 | 1026.7 |
| 20260831000747 | 72 | 300 | 2.6 | 8.7 | 0.00 | 0.00 | 0.00 | 41 | 1026.8 |
| 20260831000248 | 73 | 272 | 2.6 | 5.2 | 0.00 | 0.00 | 0.00 | 40 | 1026.8 |
| 20260830235746 | 73 | 302 | 1.7 | 6.1 | 0.00 | 0.00 | 0.00 | 41 | 1026.8 |
| 20260830235247 | 73 | 331 | 3.5 | 6.1 | 0.00 | 0.00 | 0.00 | 41 | 1026.7 |
| 20260830234746 | 72 | 295 | 1.7 | 5.2 | 0.00 | 0.00 | 0.00 | 41 | 1026.9 |
| 20260830234247 | 72 | 86 | 2.6 | 13.0 | 0.00 | 0.00 | 0.00 | 41 | 1026.9 |
| 20260830233746 | 73 | 298 | 2.6 | 13.0 | 0.00 | 0.00 | 0.00 | 40 | 1026.9 |
| 20260830233507 | 74 | 334 | 1.7 | 6.1 | 0.00 | 0.00 | 0.00 | 40 | 1026.9 |
| 20260830232747 | 74 | 255 | 3.5 | 8.7 | 0.00 | 0.00 | 0.00 | 37 | 1026.8 |
| 20260830232246 | 75 | 327 | 2.6 | 10.4 | 0.00 | 0.00 | 0.00 | 38 | 1026.8 |
| 20260830231746 | 75 | 248 | 1.7 | 10.4 | 0.00 | 0.00 | 0.00 | 37 | 1026.9 |
| 20260830231246 | 75 | 238 | 2.6 | 8.7 | 0.00 | 0.00 | 0.00 | 38 | 1026.8 |
| 20260830230747 | 74 | 298 | 0.9 | 9.6 | 0.00 | 0.00 | 0.00 | 38 | 1026.9 |
| 20260830230251 | 73 | 258 | 1.7 | 9.6 | 0.00 | 0.00 | 0.00 | 39 | 1027.1 |
| 20260830230010 | 73 | 233 | 3.5 | 9.6 | 0.00 | 0.00 | 0.00 | 38 | 1027.0 |
| 20260830225245 | 74 | 344 | 2.6 | 5.2 | 0.00 | 0.00 | 0.00 | 38 | 1027.0 |
| 20260830224745 | 74 | 290 | 1.7 | 9.6 | 0.00 | 0.00 | 0.00 | 39 | 1027.0 |
| 20260830224245 | 74 | 289 | 2.6 | 9.6 | 0.00 | 0.00 | 0.00 | 37 | 1027.1 |
| 20260830223744 | 75 | 329 | 1.7 | 6.1 | 0.00 | 0.00 | 0.00 | 37 | 1027.0 |
| 20260830223246 | 74 | 278 | 2.6 | 7.8 | 0.00 | 0.00 | 0.00 | 39 | 1027.0 |
| 20260830222745 | 74 | 265 | 2.6 | 7.8 | 0.00 | 0.00 | 0.00 | 39 | 1026.9 |
| 20260830222246 | 74 | 305 | 0.9 | 3.5 | 0.00 | 0.00 | 0.00 | 38 | 1027.0 |
| 20260830222001 | 74 | 248 | 0.9 | 3.5 | 0.00 | 0.00 | 0.00 | 39 | 1027.0 |
| 20260830221513 | 74 | 221 | 0.9 | 5.2 | 0.00 | 0.00 | 0.00 | 39 | 1027.0 |
| 20260830220745 | 74 | 266 | 0.9 | 6.1 | 0.00 | 0.00 | 0.00 | 39 | 1027.1 |
| 20260830220244 | 74 | 300 | 1.7 | 8.7 | 0.00 | 0.00 | 0.00 | 39 | 1027.3 |
| 20260830215744 | 74 | 298 | 0.9 | 8.7 | 0.00 | 0.00 | 0.00 | 38 | 1027.2 |
| 20260830215249 | 74 | 343 | 1.7 | 5.2 | 0.00 | 0.00 | 0.00 | 37 | 1027.3 |
| 20260830214745 | 74 | 309 | 1.7 | 8.7 | 0.00 | 0.00 | 0.00 | 39 | 1027.5 |
| 20260830214504 | 74 | 237 | 1.7 | 8.7 | 0.00 | 0.00 | 0.00 | 38 | 1027.5 |
| 20260830213750 | 74 | 293 | 1.7 | 6.1 | 0.00 | 0.00 | 0.00 | 38 | 1027.3 |
| 20260830213724 | 74 | 298 | 0.9 | 4.3 | 0.00 | 0.00 | 0.00 | 39 | 1027.5 |
| 20260830212743 | 73 | 303 | 0.9 | 8.7 | 0.00 | 0.00 | 0.00 | 39 | 1027.5 |
| 20260830212244 | 73 | 296 | 0.9 | 12.2 | 0.00 | 0.00 | 0.00 | 40 | 1027.6 |
| 20260830211743 | 73 | 247 | 5.2 | 12.2 | 0.00 | 0.00 | 0.00 | 37 | 1027.6 |
| 20260830211243 | 72 | 245 | 0.0 | 9.6 | 0.00 | 0.00 | 0.00 | 39 | 1027.7 |
| 20260830210742 | 72 | 228 | 4.3 | 9.6 | 0.00 | 0.00 | 0.00 | 37 | 1027.7 |
| 20260830210506 | 72 | 282 | 1.7 | 7.8 | 0.00 | 0.00 | 0.00 | 39 | 1027.8 |
| 20260830205742 | 72 | 262 | 2.6 | 7.8 | 0.00 | 0.00 | 0.00 | 38 | 1027.7 |
| 20260830205508 | 71 | 299 | 1.7 | 7.8 | 0.00 | 0.00 | 0.00 | 39 | 1027.7 |
| 20260830204742 | 71 | 271 | 2.6 | 7.8 | 0.00 | 0.00 | 0.00 | 38 | 1027.7 |
| 20260830204244 | 71 | 336 | 3.5 | 7.8 | 0.00 | 0.00 | 0.00 | 39 | 1027.8 |
| 20260830203742 | 71 | 223 | 0.9 | 5.2 | 0.00 | 0.00 | 0.00 | 38 | 1027.8 |
| 20260830203242 | 71 | 307 | 0.9 | 5.2 | 0.00 | 0.00 | 0.00 | 40 | 1027.9 |
| 20260830202743 | 72 | 251 | 1.7 | 9.6 | 0.00 | 0.00 | 0.00 | 38 | 1027.8 |
| 20260830202242 | 73 | 306 | 0.9 | 9.6 | 0.00 | 0.00 | 0.00 | 37 | 1027.8 |
| 20260830201743 | 74 | 18 | 1.7 | 5.2 | 0.00 | 0.00 | 0.00 | 38 | 1027.9 |
| 20260830201242 | 73 | 298 | 0.0 | 8.7 | 0.00 | 0.00 | 0.00 | 37 | 1027.9 |
| 20260830200743 | 72 | 276 | 1.7 | 8.7 | 0.00 | 0.00 | 0.00 | 36 | 1028.0 |
| 20260830200241 | 73 | 292 | 1.7 | 5.2 | 0.00 | 0.00 | 0.00 | 38 | 1028.0 |
| 20260830195741 | 72 | 38 | 1.7 | 10.4 | 0.00 | 0.00 | 0.00 | 38 | 1028.0 |
| 20260830195241 | 72 | 292 | 2.6 | 10.4 | 0.00 | 0.00 | 0.00 | 38 | 1028.0 |
| 20260830194741 | 72 | 295 | 1.7 | 9.6 | 0.00 | 0.00 | 0.00 | 39 | 1028.0 |
| 20260830194242 | 72 | 306 | 2.6 | 6.1 | 0.00 | 0.00 | 0.00 | 38 | 1028.1 |
| 20260830193741 | 72 | 327 | 2.6 | 6.1 | 0.00 | 0.00 | 0.00 | 39 | 1028.1 |
| 20260830193243 | 72 | 290 | 1.7 | 6.1 | 0.00 | 0.00 | 0.00 | 38 | 1028.2 |
| 20260830192741 | 72 | 324 | 1.7 | 6.1 | 0.00 | 0.00 | 0.00 | 37 | 1028.2 |
| 20260830192243 | 71 | 226 | 1.7 | 5.2 | 0.00 | 0.00 | 0.00 | 38 | 1028.3 |
| 20260830191740 | 71 | 305 | 0.9 | 9.6 | 0.00 | 0.00 | 0.00 | 38 | 1028.3 |
| 20260830191240 | 71 | 299 | 3.5 | 9.6 | 0.00 | 0.00 | 0.00 | 37 | 1028.4 |
| 20260830190745 | 71 | 16 | 0.0 | 6.1 | 0.00 | 0.00 | 0.00 | 40 | 1028.4 |
| 20260830190239 | 70 | 283 | 1.7 | 8.7 | 0.00 | 0.00 | 0.00 | 39 | 1028.4 |
| 20260830185741 | 70 | 306 | 1.7 | 8.7 | 0.00 | 0.00 | 0.00 | 40 | 1028.4 |
| 20260830185241 | 70 | 254 | 0.9 | 9.6 | 0.00 | 0.00 | 0.00 | 40 | 1028.5 |
| 20260830184741 | 70 | 302 | 3.5 | 9.6 | 0.00 | 0.00 | 0.00 | 39 | 1028.5 |
| 20260830184239 | 69 | 272 | 0.9 | 6.1 | 0.00 | 0.00 | 0.00 | 40 | 1028.6 |
| 20260830184004 | 69 | 299 | 0.9 | 5.2 | 0.00 | 0.00 | 0.00 | 41 | 1028.7 |
| 20260830183240 | 69 | 306 | 1.7 | 9.6 | 0.00 | 0.00 | 0.00 | 43 | 1028.7 |
| 20260830182739 | 69 | 302 | 0.0 | 9.6 | 0.00 | 0.00 | 0.00 | 42 | 1028.7 |
| 20260830182502 | 69 | 279 | 1.7 | 5.2 | 0.00 | 0.00 | 0.00 | 41 | 1028.9 |
| 20260830181745 | 68 | 302 | 1.7 | 5.2 | 0.00 | 0.00 | 0.00 | 43 | 1028.7 |
| 20260830181739 | 69 | 300 | 1.7 | 5.2 | 0.00 | 0.00 | 0.00 | 43 | 1028.8 |
| 20260830180739 | 68 | 23 | 1.7 | 4.3 | 0.00 | 0.00 | 0.00 | 42 | 1028.7 |
| 20260830180240 | 68 | 320 | 2.6 | 4.3 | 0.00 | 0.00 | 0.00 | 43 | 1028.9 |
| 20260830175741 | 67 | 286 | 0.9 | 4.3 | 0.00 | 0.00 | 0.00 | 45 | 1028.8 |
| 20260830175238 | 67 | 302 | 2.6 | 7.8 | 0.00 | 0.00 | 0.00 | 44 | 1028.9 |
| 20260830174739 | 66 | 309 | 1.7 | 7.8 | 0.00 | 0.00 | 0.00 | 46 | 1028.8 |
| 20260830174505 | 66 | 310 | 1.7 | 4.3 | 0.00 | 0.00 | 0.00 | 46 | 1028.8 |
| 20260830173739 | 65 | 309 | 0.9 | 8.7 | 0.00 | 0.00 | 0.00 | 49 | 1028.8 |
| 20260830173238 | 64 | 305 | 1.7 | 8.7 | 0.00 | 0.00 | 0.00 | 48 | 1028.9 |
| 20260830172744 | 64 | 248 | 1.7 | 4.3 | 0.00 | 0.00 | 0.00 | 48 | 1028.8 |
| 20260830172238 | 64 | 13 | 1.7 | 5.2 | 0.00 | 0.00 | 0.00 | 50 | 1028.8 |
| 20260830171739 | 64 | 310 | 1.7 | 5.2 | 0.00 | 0.00 | 0.00 | 50 | 1028.8 |
| 20260830171237 | 63 | 306 | 2.6 | 4.3 | 0.00 | 0.00 | 0.00 | 51 | 1028.8 |
| 20260830170957 | 62 | 336 | 1.7 | 4.3 | 0.00 | 0.00 | 0.00 | 54 | 1028.7 |
| 20260830170245 | 61 | 341 | 0.0 | 2.6 | 0.00 | 0.00 | 0.00 | 59 | 1028.9 |
| 20260830165737 | 60 | 92 | 0.0 | 2.6 | 0.00 | 0.00 | 0.00 | 60 | 1028.9 |
| 20260830165237 | 59 | 59 | 0.0 | 2.6 | 0.00 | 0.01 | 0.00 | 60 | 1028.9 |
| 20260830164736 | 59 | 65 | 0.0 | 2.6 | 0.00 | 0.01 | 0.00 | 64 | 1028.9 |
| 20260830164238 | 58 | 107 | 0.0 | 3.5 | 0.00 | 0.01 | 0.00 | 66 | 1028.9 |
| 20260830163944 | 57 | 111 | 0.0 | 2.6 | 0.00 | 0.03 | 0.00 | 69 | 1028.9 |
| 20260830163832 | 57 | 59 | 0.0 | 3.5 | 0.00 | 0.02 | 0.00 | 67 | 1028.9 |
| 20260830162738 | 56 | 127 | 0.9 | 3.5 | 0.00 | 0.04 | 0.00 | 69 | 1029.1 |
| 20260830162236 | 56 | 73 | 1.7 | 3.5 | 0.00 | 0.05 | 0.00 | 70 | 1029.1 |
| 20260830161744 | 56 | 103 | 0.9 | 3.5 | 0.00 | 0.07 | 0.00 | 70 | 1028.9 |
| 20260830161235 | 55 | 131 | 0.0 | 3.5 | 0.00 | 0.07 | 0.00 | 70 | 1029.1 |
| 20260830160738 | 55 | 68 | 0.9 | 3.5 | 0.00 | 0.08 | 0.00 | 70 | 1028.9 |
| 20260830160459 | 55 | 86 | 0.9 | 3.5 | 0.00 | 0.08 | 0.00 | 72 | 1028.9 |
| 20260830155959 | 55 | 65 | 1.7 | 3.5 | 0.00 | 0.08 | 0.00 | 72 | 1029.1 |
| 20260830155236 | 54 | 85 | 0.0 | 2.6 | 0.00 | 0.09 | 0.00 | 74 | 1028.9 |
| 20260830154740 | 53 | 39 | 0.9 | 2.6 | 0.00 | 0.09 | 0.00 | 73 | 1029.1 |
| 20260830154235 | 52 | 86 | 0.0 | 2.6 | 0.00 | 0.09 | 0.00 | 76 | 1029.1 |
| 20260830153736 | 52 | 83 | 0.0 | 2.6 | 0.00 | 0.09 | 0.00 | 76 | 1029.2 |
| 20260830153236 | 51 | 72 | 0.9 | 2.6 | 0.00 | 0.09 | 0.00 | 75 | 1029.2 |
| 20260830152736 | 51 | 73 | 0.0 | 1.7 | 0.00 | 0.09 | 0.00 | 78 | 1029.2 |
| 20260830152238 | 50 | 118 | 0.0 | 0.9 | 0.00 | 0.09 | 0.00 | 79 | 1029.3 |
| 20260830152005 | 49 | 68 | 0.0 | 0.9 | 0.00 | 0.09 | 0.00 | 80 | 1029.3 |
| 20260830151236 | 49 | 61 | 0.0 | 0.0 | 0.00 | 0.09 | 0.00 | 81 | 1029.3 |
| 20260830150735 | 48 | 90 | 0.0 | 0.0 | 0.00 | 0.09 | 0.00 | 82 | 1029.3 |
| 20260830150236 | 48 | 111 | 0.0 | 0.0 | 0.00 | 0.09 | 0.00 | 84 | 1029.3 |
| 20260830145734 | 47 | 111 | 0.0 | 0.0 | 0.00 | 0.09 | 0.00 | 84 | 1029.4 |
| 20260830145234 | 47 | 120 | 0.0 | 0.0 | 0.00 | 0.09 | 0.00 | 84 | 1029.4 |
| 20260830144734 | 47 | 87 | 0.0 | 0.0 | 0.00 | 0.09 | 0.00 | 85 | 1029.3 |
| 20260830144235 | 47 | 87 | 0.0 | 0.0 | 0.00 | 0.09 | 0.00 | 85 | 1029.4 |
| 20260830143736 | 46 | 87 | 0.0 | 0.0 | 0.00 | 0.09 | 0.00 | 85 | 1029.4 |
| 20260830143504 | 46 | 87 | 0.0 | 0.0 | 0.00 | 0.09 | 0.00 | 86 | 1029.5 |
| 20260830142738 | 46 | 87 | 0.0 | 0.0 | 0.00 | 0.09 | 0.00 | 86 | 1029.4 |
| 20260830142233 | 45 | 87 | 0.0 | 0.0 | 0.00 | 0.10 | 0.00 | 87 | 1029.4 |